Regional Weather Roundup
Issued by NWS Little Rock, AR

Home | Current Version | Previous Version | Text Only | Print | Product List | Glossary On
Versions: 1 2 3 4 5 6 7 8 9 10 11 12 13 14 15 16 17 18 19 20 21 22 23 24 25 26 27 28 29 30 31 32 33 34 35 36 37 38 39 40 41 42 43 44 45 46 47 48 49 50
000
ASUS44 KLZK 011405
RWRLZK

WEATHER ROUNDUP FOR ARKANSAS
NATIONAL WEATHER SERVICE LITTLE ROCK AR
900 AM CDT MON SEP 01 2014

NOTE: "FAIR" INDICATES FEW OR NO CLOUDS BELOW 12,000 FEET WITH NO
SIGNIFICANT WEATHER AND/OR OBSTRUCTIONS TO VISIBILITY.

ARZ001-003-010-029-011500-
NORTHWEST ARKANSAS

CITY           SKY/WX    TMP DP  RH WIND       PRES   REMARKS
FAYETTEVILLE   CLOUDY    67  65  93 VRB5      30.03F
FORT SMITH     SUNNY     80  70  71 SE7       29.98S
HARRISON       CLOUDY    67  64  90 CALM      30.07R
BENTONVILLE    CLOUDY    64  63  94 SE12      30.05R
ROGERS         HVY RAIN  64  62  93 E9        30.07R FOG
HIGHFILL       HVY RAIN  65  32  29 E9        30.05R
SPRINGDALE     CLOUDY    66  63  88 E14       30.06R
$$

ARZ004-005-016-011500-
NORTH CENTRAL ARKANSAS

CITY           SKY/WX    TMP DP  RH WIND       PRES   REMARKS
BATESVILLE     MOSUNNY   81  73  78 SW9       30.02R HX  85
FLIPPIN        CLOUDY    70  63  78 N6        30.03S
MTN HOME       CLOUDY    70  65  84 NE6       30.02S
$$

ARZ040-041-011500-
WEST CENTRAL ARKANSAS

CITY           SKY/WX    TMP DP  RH WIND       PRES   REMARKS
MENA           CLOUDY    79  72  78 CALM      30.04R
MOUNT IDA      CLOUDY    78  72  81 CALM      30.02R
$$

ARZ009-017-025-026-028-011500-
NORTHEAST ARKANSAS

CITY           SKY/WX    TMP DP  RH WIND       PRES   REMARKS
CORNING          N/A     77  73  88 SW14      30.00S
JONESBORO      PTSUNNY   80  73  79 SW14      30.02F
NEWPORT        SUNNY     80  74  82 S10       30.03F
WALNUT RIDGE   MOSUNNY   77  68  73 S12       30.00F
BLYTHEVILLE    PTSUNNY   79  76  90 SW10G18   30.04S
$$

ARZ022-023-033-042-044-011500-
CENTRAL ARKANSAS

CITY           SKY/WX    TMP DP  RH WIND       PRES   REMARKS
LITTLE ROCK    CLOUDY    79  72  79 SW3       30.04R
N LITTLE ROCK  CLOUDY    77  73  88 SW5       30.04R
JACKSONVILLE   PTSUNNY   79  73  83 SW5       30.03F
SEARCY         MOSUNNY   78  74  87 W6        30.04F
HOT SPRINGS    CLOUDY    78  72  81 W5        30.04R
RUSSELLVILLE   MOSUNNY   81  72  74 SE3       30.01S HX  85
CLINTON        CLOUDY    79  73  83 CALM      30.03F
$$

ARZ036-011500-
EAST ARKANSAS

CITY           SKY/WX    TMP DP  RH WIND       PRES   REMARKS
WEST MEMPHIS   CLOUDY    80  77  90 VRB6      30.05R HX  87
$$

ARZ050-053-066-070-073-011500-
SOUTHWEST ARKANSAS

CITY           SKY/WX    TMP DP  RH WIND       PRES   REMARKS
ARKADELPHIA    PTSUNNY   78  75  90 CALM      30.03R
CAMDEN         PTSUNNY   77  73  88 S5        30.01S FOG
TEXARKANA      CLOUDY    79  75  87 S13       29.98S
EL DORADO      CLOUDY    77  75  93 S3        30.02S
DE QUEEN       CLOUDY    78  74  87 CALM      29.99R
$$

ARZ056-057-069-011500-
SOUTHEAST ARKANSAS

CITY           SKY/WX    TMP DP  RH WIND       PRES   REMARKS
PINE BLUFF     CLOUDY    76  73  91 SW9       30.04R
STUTTGART      CLOUDY    79  73  83 SW9       30.05R
MONTICELLO     CLOUDY    78  74  87 S10       30.03S

$$




USA.gov is the U.S. government's official web portal to all federal, state and local government web resources and services.